Regional Weather Roundup
Issued by NWS Kansas City/Pleasant Hill, MO

Home | Current Version | Previous Version | Text Only | Print | Product List | Glossary On
Versions: 1 2 3 4 5 6 7 8 9 10 11 12 13 14 15 16 17 18 19 20 21 22 23 24 25 26 27 28 29 30 31 32 33 34 35 36 37 38 39 40 41 42 43 44 45 46 47 48 49 50
000
ASUS43 KEAX 191011
RWREAX

WEATHER ROUNDUP FOR EASTERN KANSAS AND NORTHWEST MISSOURI
NATIONAL WEATHER SERVICE KANSAS CITY/PLEASANT HILL MO
500 AM CDT SAT APR 19 2014

KSZ040-057-103>105-MOZ028-029-037-043-191100-
...KANSAS CITY METROPOLITAN AREA...

CITY           SKY/WX    TMP DP  RH WIND       PRES   REMARKS
K.C. INTL      CLEAR     54  39  57 S13       30.14S
K.C. DOWNTOWN  CLEAR     57  39  51 S7        30.14S
LEES SUMMIT    CLEAR     54  39  57 SE10      30.15S
OLATHE - IXD   CLEAR     50  39  66 SE7       30.15S
OLATHE - OJC   CLEAR     50  39  66 SE7       30.14S
LAWRENCE       CLEAR     45  39  79 SE8       30.13F

$$

MOZ001>008-011>017-020>025-030>033-038>040-044>046-053-054-191100-
...NORTHERN AND CENTRAL MISSOURI...

CITY           SKY/WX    TMP DP  RH WIND       PRES   REMARKS
ST. JOSEPH     CLEAR     52  40  63 S8        30.13F
MOSBY          FAIR      41  39  93 CALM      30.15S
WARRENSBURG    CLEAR    N/A N/A N/A SE7       30.16S
WHITEMAN AFB   CLEAR     53  39  57 S6        30.16S
CLINTON        CLEAR     54  43  66 SE3       30.17S
SEDALIA        CLEAR     52  41  66 SE8       30.18F
WARSAW         NOT AVBL
MARSHALL         N/A     54  45  71 E8        30.19S
CHILLICOTHE      N/A     51  39  63 S3        30.18S
MOBERLY        CLEAR     50  39  66 SE8       30.21F
KIRKSVILLE     CLEAR     46  34  62 SE9       30.20F

$$

MOZ041-047>049-056>058-063>065-088>090-097-191100-
...EASTERN AND SOUTHERN MISSOURI...

CITY           SKY/WX    TMP DP  RH WIND       PRES   REMARKS
ST. LOUIS INTL PTCLDY    52  37  56 E7        30.25R
SPIRIT OF STL  CLEAR     42  39  89 CALM      30.24S
COLUMBIA       CLEAR     50  40  68 SE9       30.21F
JEFFERSON CITY CLEAR     44  39  82 E3        30.22S
MEXICO         CLEAR     43  39  87 CALM      30.22S
HANNIBAL       CLEAR     50  32  50 E9        30.25S
ROLLA          CLEAR     49  40  71 SE9       30.21S
LEBANON        CLEAR     52  41  66 SE6       30.21F
OSAGE BEACH    CLEAR     54  37  54 SE3       30.22S
SPRINGFIELD    CLEAR     52  41  66 SE9       30.19R
BRANSON        CLEAR     50  41  71 SE6       30.21S
NEVADA         CLEAR     52  43  71 S10       30.18R
JOPLIN         CLEAR     53  41  63 SE8       30.17S
WEST PLAINS    CLEAR     44  39  82 NE3       30.22S

$$

IAZ060-094-KSZ022-034>040-054-083-096-NEZ052-066-093-191100-
...KANSAS...SOUTHEAST NEBRASKA AND IOWA...

CITY           SKY/WX    TMP DP  RH WIND       PRES   REMARKS
TOPEKA         CLEAR     50  41  71 SE7       30.11F
MANHATTAN      PTCLDY    53  40  61 S8        30.08S
EMPORIA        CLEAR     47  40  76 S9        30.11S HAZE
CHANUTE        CLEAR     45  40  82 SE8       30.13S
WICHITA        PTCLDY    48  39  71 S8        30.09S
OMAHA          PTCLDY    54  41  61 S16       30.04S
LINCOLN        PTCLDY    55  39  54 S17       30.02F
FALLS CITY     CLEAR     52  41  66 S13       30.09F
LAMONI         CLEAR     49  37  63 S5        30.15R
DES MOINES     PTCLDY    50  33  52 SE10      30.16R

$$




USA.gov is the U.S. government's official web portal to all federal, state and local government web resources and services.